Погода в Воинке

Россия / Республика Крым     45°52′14″N   33°59′19″E
темп.,
°C
ветер,
м/с
пор.,
м/с
влажн.,
%
обл.,
%
осадки,
мм/ч
давл.,
гПа
погр.,
м
27 октября, ср
ср2700:00+4в36740 0.0 1029103
03:00+4вюв35760 0.0 102881
06:00+3вюв34800 0.0 102743
09:00+7юв34670 0.0 1027171
12:00+12вюв22460 0.0 1026816
15:00+14сз11390 0.0 10251114
18:00+8с23680 0.0 102537
21:00+6ю11840 0.0 102610
28 октября, чт
чт2800:00+5з11830 0.0 102610
03:00+5з22827 0.0 102610
06:00+5сз1182100 0.0 102610
09:00+8ссз12635 0.0 1027106
12:00+13зсз334931 0.0 1026845
15:00+14сз444751 0.0 1025928
18:00+10зсз22625 0.0 102518
21:00+8з34756 0.0 102565
29 октября, пт
пт2900:00+8з338370 0.0 102529
03:00+8зюз348686 0.0 102544
06:00+8зюз3387100 0.0 102539
09:00+11сз127593 0.0 1026134
12:00+14ссв3364100 0.0 1026476
15:00+15св44615 0.0 1026678
18:00+11вюв33790 0.0 102728
21:00+9в33890 0.0 102835
30 октября, сб
сб3000:00+8в33910 0.0 102943
03:00+8всв34900 0.0 102954
06:00+8всв38930 0.0 1029163
09:00+10в59850 0.0 1030515
12:00+14в78570 0.0 10301108
15:00+13в810550 0.0 10291002
18:00+9в611790 0.0 1030507
21:00+8всв410820 0.0 1030307
31 октября, вс
вс3100:00+8всв411850 0.0 1029275
03:00+7всв410912 0.0 1028240
06:00+8всв4109119 0.0 1028275
09:00+10в6107736 0.0 1027761
12:00+14в78570 0.0 1026914
15:00+13в78580 0.0 1025868
18:00+9в510790 0.0 1025370
21:00+8всв49900 0.0 1024216